Find KUIPER-00370

NORAD ID: 68919 Int'l Des: 2026-098A Owner: KUIP Country: US Constellation: amazon-leo operational
LEOCIRCULAR

リアルタイム位置

3D地球を読み込み中...

KUIPER-00370について

説明を読み込み中...

次回通過

Passes for default location (London). Set your location on the main map for personalized predictions.

高度履歴

Loading altitude history...

軌道要素

1 68919U 26098A 26125.83336806 .00066942 00000-0 20513-2 0 9991
2 68919 51.8750 271.8337 0015104 3.0023 267.1808 15.33062123 1774
Epoch: May 5, 2026 • Age: 7 hours

現在のステータス

高度 456.4 km
速度 7.65 km/s
衛星直下点 6.67°N, 11.46°E
打ち上げ日 Apr 30, 2026
運用期間 6 days
タイプ internet

技術仕様

分類 Payload
質量 490.00 kg
乾燥質量 490.00 kg
総質量 490.00 kg
長さ 1.80 m
直径 0.70 m
スパン 5.00 m
形状 Box + 2 pan
製造者 KUIP
バスタイプ Kuiper
フェーズステータス In Orbit
所有者/国 KUIP/US

Most Searched